{"data":{"norad_id":49188,"intl_designator":"2021-083C","name":"ONEWEB-0306","alt_names":[],"object_type":"PAYLOAD","status":"ACTIVE","operator":null,"country":"UK","launch_date":"2021-09-14","launch_site_code":"TYMSC","launch_vehicle":null,"mission":null,"orbit_class":"UNKNOWN","rcs_meters":null,"size_class":null,"mass_kg":null,"dimensions":null,"purposes":["comms"],"wikipedia_slug":null,"has_3d_model":false,"image_url":null,"decayed_at":null,"tle_current":{"epoch":"2026-05-25T01:48:42.931296Z","epoch_age_seconds":65712,"freshness":"FRESH","line1":"1 49188U 21083C   26145.07549689  .00000019  00000+0  14406-4 0  9998","line2":"2 49188  87.9170 340.0433 0001598  87.9217 272.2098 13.18685464226970","mean_motion":13.18685464,"eccentricity":0.0001598,"inclination_deg":87.917,"raan_deg":340.0433,"arg_perigee_deg":87.9217,"mean_anomaly_deg":272.2098,"bstar":1.4406e-5,"rev_number":22697,"period_min":109.19965672724,"perigee_km":1188.5358300157,"apogee_km":1190.9545251597,"semimajor_km":7567.8821775877,"source":"CELESTRAK","updated_at":"2026-05-25T13:38:22.489056Z"}}}